Regional Weather Roundup
Issued by NWS Midland/Odessa, TX

Skip options and go directly to product.
Home | Oldest Version | Previous Version | Current Version | All | Text Only | Save Text | Print | Product List | Glossary On

Skip product version selection by date and time.   
085
ASUS44 KMAF 260210
RWRMAF
MIDLAND AREA WEATHER ROUNDUP
NATIONAL WEATHER SERVICE MIDLAND TX
900 PM CDT MON JUL 25 2016

...IN SOUTHWEST TEXAS AND SOUTHEAST NEW MEXICO...

CITY           SKY/WX    TMP DP  RH WIND       PRES   REMARKS
ALPINE         CLEAR     87  50  28 E10G16    30.12R
ANDREWS        FAIR      92  55  27 E15G23    30.00R
ARTESIA        CLOUDY    93  55  27 E5        30.00S
BIG SPRING     CLEAR     93  60  32 E8        29.99R
CARLSBAD       CLOUDY    95  51  22 SE8       29.97R
DRYDEN           N/A     94  60  32 SE14      29.90R
FORT STOCKTON  CLEAR     93  55  27 SE8       29.96R
GUAD PASS      CLEAR     84  49  29 E17       30.15R
HOBBS          CLEAR     90  50  25 E8        30.03S
MARFA          CLEAR     85  51  31 E12       30.10R
MIDLAND AIRPK  CLEAR     96  55  24 E12G18    29.97S
MIDLAND INTL   CLEAR     95  56  26 SE10      29.96S
ODESSA         CLEAR     94  56  27 SE10      29.98S
PECOS          CLEAR     96  54  24 E12       29.92R
PRESIDIO       FAIR      97  49  19 NE13G18   29.89R
SEMINOLE       CLEAR     91  55  29 E9        30.03R
SNYDER           N/A     92  61  35 E6        29.98R
WINK           CLOUDY    96  54  24 SE16      29.93R
$$
...OTHER STATIONS IN TEXAS...

CITY           SKY/WX    TMP DP  RH WIND       PRES   REMARKS
ABILENE        CLEAR     91  63  39 SE7       29.95R
AMARILLO       MOCLDY    78  61  55 CALM      30.11R
AUSTIN         TSTM      78  76  93 E7        29.96R
BROWNSVILLE    MOCLDY    85  77  77 SE12      29.88R
CORPUS CHRISTI MOCLDY    85  78  80 SE15      29.88R
DALLAS FTW     CLOUDY    83  69  62 SE12      29.93R
DEL RIO        PTCLDY    96  62  32 SE10      29.83R
EL PASO        PTCLDY    96  44  16 E13G18    29.97R
HOUSTON INT    CLOUDY    81  73  76 SW3       29.93S
LUBBOCK        PTCLDY    82  58  43 SE6       30.03F
SAN ANGELO     CLEAR     92  60  34 E7        29.92S
SAN ANTONIO    TSTM      80  70  71 NE24G37   29.93R
WACO           CLOUDY    77  72  84 MISG      29.94S
WICHITA FALLS  NOT AVBL
$$
...OTHER LOCATIONS IN NEW MEXICO...

CITY           SKY/WX    TMP DP  RH WIND       PRES   REMARKS
ALAMAGORDO     PTCLDY    86  54  32 NE6       30.02S
ALBUQUERQUE    CLOUDY    80  54  40 W17       30.19S
CANNON AFB     CLOUDY    74  62  64 SW10      30.14S
CLOVIS         CLOUDY    75  59  57 W15       30.13R
HOLLOMAN AFB   CLOUDY    87  63  45 NE7       29.99S
ROSWELL        CLOUDY    95  50  21 SE10      30.01R
RUIDOSO          N/A     77  46  33 W5        30.30R
SANTA FE       CLOUDY    73  59  61 N5        30.27S
TRUTH OR CONSE MOCLDY    88  50  27 SE12      30.08R
TUCUMCARI      LGT RAIN  71  64  78 N12G18    30.17R
$$

USA.gov is the U.S. government's official web portal to all federal, state and local government web resources and services.